Regional Weather Roundup
Issued by NWS

Home | Current Version | Previous Version | Text Only | Print | Product List | Glossary Off
Versions: 1 2 3 4 5 6 7 8 9 10 11 12 13 14 15 16 17 18 19 20 21 22 23 24 25 26 27 28 29 30 31 32 33 34 35 36 37 38 39 40 41 42 43 44 45 46 47 48 49 50

000
ASUS45 KBOU 291307
RWRCO

WEATHER ROUNDUP FOR COLORADO
NATIONAL WEATHER SERVICE DENVER/BOULDER CO
700 AM MDT FRI APR 29 2016

NOTE: "FAIR" INDICATES FEW OR NO CLOUDS BELOW 12000 FEET WITH NO
SIGNIFICANT WEATHER AND/OR OBSTRUCTIONS TO VISIBILITY.

COZ001>005-013-030-031-291400-
...NORTHWEST COLORADO...

CITY           SKY/WX    TMP DP  RH WIND       PRES   REMARKS
CRAIG          CLOUDY    36  32  85 N6        29.85S
HAYDEN         FAIR      36  30  80 CALM      29.85R
MEEKER         FAIR      35  32  88 N5        29.84R WCI  31
MOUNT WERNER   NOT AVBL
STEAMBOAT SPGS CLOUDY    33  31  92 E3        29.84F
WALDEN         CLOUDY    28  27  93 E3        29.91R
$$

COZ006>008-011-291400-
...WEST CENTRAL VALLEYS...

CITY           SKY/WX    TMP DP  RH WIND       PRES   REMARKS
GRAND JUNCTION MOCLDY    38  37  97 CALM      29.83R
MONTROSE       FAIR      39  34  82 CALM      29.84R
EAGLE          CLOUDY    37  36  93 CALM      29.87F
RIFLE          FAIR      40  37  89 CALM      29.82R
DELTA          NOT AVBL
NUCLA          NOT AVBL
$$

COZ017>023-064>068-291400-
...SOUTHWEST COLORADO...

CITY           SKY/WX    TMP DP  RH WIND       PRES   REMARKS
DURANGO        CLOUDY    36  32  85 CALM      29.84F
CORTEZ         CLOUDY    33  30  88 E7        29.85R WCI  27
PAGOSA SPRINGS CLOUDY    33  33 100 CALM      29.86R
TELLURIDE      FAIR      31  25  78 CALM      29.87S
WOLF CREEK PAS NOT AVBL
$$

COZ009-010-012-014-032>034-037-058>063-291400-
...CENTRAL COLORADO...

CITY           SKY/WX    TMP DP  RH WIND       PRES   REMARKS
ASPEN          LGT SNOW  33  31  92 CALM      29.85F FOG
BUENA VISTA    SNOW      30  28  94 CALM      29.92F VSB 1/2
COPPER MTN     NOT AVBL
BERTHOUD PASS  SNOW      14   5  67 E30G38    29.92F VSB<1/4 WCI  -7
COTTONWOOD PAS HVY SNOW  30  27  86 E5        29.93S VSB<1/4 WCI  25
GUNNISON       CLOUDY    34  30  86 E5        29.88S WCI  30
KREMMLING      MOCLDY    34  32  93 E3        29.90R
LEADVILLE      LGT SNOW  24  23  96 S8        29.90S VSB 3/4 WCI  15
MONARCH PASS   CLOUDY    19  16  86 NE26      29.97F WCI   1
SALIDA         CLOUDY    32  31  96 E6        30.00S WCI  26
SUNLIGHT       CLOUDY    28  27  93 CALM      29.93F
WILKERSON PASS LGT SNOW N/A N/A N/A E10G17    29.95F VSB 3/4
$$

COZ069>075-291400-
...SAN LUIS VALLEY/SANGRE DE CRISTO MOUNTAINS...

CITY           SKY/WX    TMP DP  RH WIND       PRES   REMARKS
ALAMOSA        LGT SNOW  33  32  96 SW12      29.83S FOG     WCI  24
LA VETA PASS   SNOW      23  21  93 MISG      29.88F VSB 1/2
SAGUACHE       NOT AVBL
$$

COZ035-036-038>040-291400-
...NORTHERN COLORADO FRONT RANGE...

CITY           SKY/WX    TMP DP  RH WIND       PRES   REMARKS
DENVER INTL AP CLOUDY    33  30  88 E8        29.98S VSB 1/4 WCI  26
DMNS CITY PARK   N/A     34  34  99 N3G12     29.98F
AURORA         FLURRIES  34  33  99 E3        29.98F
FRONT RANGE AP NOT AVBL
ERIE MUNI ARPT LGT SNOW  34  33  98 CALM      29.99F
BOULDER MUN AP MIX PCPN  32  32 100 CALM      29.99S
CENTENNIAL     LGT SNOW  34  33  96 N5        29.97F FOG     WCI  30
BROOMFIELD     SNOW      34  34 100 N3        29.99F VSB 1/4
FORT COLLINS   CLOUDY    34  30  86 SE5       30.01F WCI  30
LONGMONT       LGT SNOW  35  34  95 CALM      30.02F
$$

COZ041-046-047-076>085-087-088-291400-
...PIKES PEAK/PALMER DIVIDE AND SOUTHERN FOOTHILLS...

CITY           SKY/WX    TMP DP  RH WIND       PRES   REMARKS
COLO. SPRINGS  LGT SNOW  33  31  92 NW5       29.96F FOG     WCI  29
A. F. ACADEMY  LGT SNOW  32  32 100 CALM      29.94F FOG
SCHRIEVER AFB  NOT AVBL
ELLICOTT       NOT AVBL
FALCON         LGT SNOW  31  31  99 N6        29.95F WCI  25
FORT CARSON    LGT SNOW  32  32 100 N6        29.95R FOG     WCI  26
LIMON          SNOW      32  31  96 NE6       29.96F VSB 1/2 WCI  26
MONUMENT HILL  LGT SNOW  30  30 100 E3        29.96F
TRINIDAD       SNOW      33  31  92 N8        29.92F VSB 1/2 WCI  26
$$

COZ042>045-048>051-090-091-291400-
...NORTHEAST COLORADO...

CITY           SKY/WX    TMP DP  RH WIND       PRES   REMARKS
GREELEY ARPT   CLOUDY    36  34  93 E8        30.02S
AKRON          CLOUDY    35  33  92 E10       29.98F WCI  27
BURLINGTON     CLOUDY    38  35  89 NE15      29.97S
WRAY           NOT AVBL
STERLING       CLOUDY    36  36 100 NE5       30.01F
HOLYOKE        NOT AVBL
FORT MORGAN    DRIZZLE   36  35  96 NE9       30.00F
$$

COZ086-089-092>099-291400-
...SOUTHEAST COLORADO...

CITY           SKY/WX    TMP DP  RH WIND       PRES   REMARKS
PUEBLO         SNOW      34  32  92 CALM      29.98S VSB 1/2
LA JUNTA       LGT RAIN  39  37  92 NE10      29.95S
LAMAR          RAIN      42  40  92 NE15      29.93S FOG
SPRINGFIELD      N/A     40  39  97 NE22G29   29.87F
$$



USA.gov is the U.S. government's official web portal to all federal, state and local government web resources and services.